ViaSat-1

operational
NORAD ID: 37843 Int'l Des: 2011-059 Owner: VIA Country: US
HEOCIRCULARGSOGEO

About ViaSat-1

Description loading...

Live Position

Loading 3D Globe...

Upcoming Passes

Altitude History

Altitude vs Time

uPlot chart will show altitude changes over time

Two-Line Element Set

1 37843U 11059A 26062.56367394 -.00000038 00000-0 00000-0 0 9992
2 37843 0.0166 164.7931 0002417 185.1458 259.1711 1.00271029 46263
Epoch: Mar 3, 2026 • Age: 26 hours

Current Status

Altitude 35786.6 km
Velocity 3.07 km/s
Sub-Earth Point -0.04°S, 115.09°W
Launch Date Oct 19, 2011
Age 14.3 years
Type other

Technical Details

Classification Payload
Mass 6740.00 kg
Dry Mass 3650.00 kg
Total Mass 6740.00 kg
Length 8.70 m
Diameter 3.10 m
Span 26.10 m
Shape Box + 2 Pan
Manufacturer LOR
Bus Type SSL-1300
Phase Status In Orbit
Owner/State VIA/US

Large Constellations

Loading constellations...